Погода в Николаевске

Россия / Волгоградская область     50°01′33″N   45°27′32″E
темп.,
°C
ветер,
м/с
пор.,
м/с
влажн.,
%
обл.,
%
осадки,
мм/ч
давл.,
гПа
погр.,
м
6 марта, сб
сб600:00−1ссз2288100 0.1 101467
03:00−1ссв2284100 0.1 101545
06:00−2св3493100 0.1 1015221
09:00−2всв4693100 0.6 1015296
12:00−2св4695100 1.8 1014367
15:00−2ссв5795100 3.3 1013414
18:00−3ссв5796100 0.6 1012446
21:00−4ссв3595100 1.1 1012304
7 марта, вс
вс700:00−4ссз2395100 0.4 1012177
03:00−4сз5109298 0.6 1015512
06:00−8сз7138764 0.0 1017409
09:00−7зсз7118132 0.0 1019447
12:00−4з69730 0.0 1019836
15:00−2зюз7107033 0.0 10171340
18:00−3юз61381100 0.0 1014557
21:00−2юз81676100 0.0 1013796
8 марта, пн
пн800:00−3юз81776100 0.0 1010756
03:00−3юз9187750 0.0 1009759
06:00−3зюз8168449 0.0 1008678
09:00−1зюз8138254 0.0 1009865
12:00+1зюз9128197 0.0 10091091
15:00+1зюз8138099 0.1 10081141
18:000зюз61384100 0.1 1009435
21:00−3сз4108099 0.6 1012586
9 марта, вт
вт900:00−6сз368170 0.0 1014269
03:00−8зсз238448 0.0 101494
06:00−8сз238189 0.0 101594
09:00−6сз226895 0.0 1015235
12:00−4св2261100 0.0 1015412
15:00−4всв2364100 0.0 1014514
18:00−5всв2482100 0.1 1013467
21:00−5ссв3490100 0.8 1015416
10 марта, ср
ср1000:00−6с3591100 0.1 1015377
03:00−8ссз5687100 0.1 1017352
06:00−10ссз6985100 0.0 1018452
09:00−10ссз697694 0.1 1020561
12:00−9ссз68716 0.0 1023767
15:00−9сз69683 0.0 1024867
18:00−12ссз59700 0.0 1025611
21:00−14ссз46750 0.0 1026357